Wind_Speed
21 21 19 18 18 17 15 11 11 11 12 14 16 17 17 15 14 13 11 11 10 11 11 11 11 11 10 11 10 9 9 9 9 8 7 7 8 9 9 10 10 11 11
21 21 21 20 19 17 14 14 13 13 13 18 19 19 18 17 15 15 13 13 13 12 12 9 10 10 10 11 11 11 11 9 8 9 8 7 7 8 8 10 10 10 11
21 21 21 20 20 19 16 14 17 17 13 19 21 20 19 18 16 15 15 14 13 12 11 11 9 9 9 9 9 9 10 10 10 10 9 8 7 7 8 9 10 11 12
22 21 19 19 19 18 18 18 19 20 18 20 23 21 19 19 18 16 16 16 15 15 15 12 11 9 9 9 8 9 8 9 9 10 10 10 9 8 8 8 11 10 12
21 21 20 18 18 18 18 19 18 23 20 21 24 22 20 20 18 18 17 15 15 14 15 14 13 12 11 10 9 9 9 8 7 7 8 8 9 10 10 10 11 11 12
21 21 22 19 18 18 17 18 20 23 19 25 24 22 21 20 20 19 18 17 16 16 15 16 13 13 13 13 13 12 11 10 9 8 7 9 7 8 8 10 11 12 13
21 22 21 21 20 19 18 20 21 21 23 23 22 22 22 21 21 20 18 18 17 17 15 15 14 13 12 12 12 13 13 12 11 10 9 9 9 9 9 10 11 12 13
23 23 21 21 20 20 20 19 19 20 20 21 22 22 23 22 22 20 20 18 18 17 15 14 15 14 14 13 13 12 11 11 11 10 10 9 10 10 9 8 9 12 13
24 23 22 20 21 21 20 19 19 19 20 21 21 22 23 22 20 19 19 18 17 17 15 15 14 13 13 13 13 12 12 12 12 11 12 11 11 10 10 11 13 14 16
26 25 23 21 20 21 21 19 19 19 21 21 22 22 21 20 19 18 18 18 16 15 13 13 14 13 12 12 11 11 14 15 15 15 16 15 16 17 16 16 16 19 18
28 27 25 23 21 21 21 22 20 21 22 23 24 25 26 26 24 23 22 20 19 18 17 17 18 19 19 18 17 17 19 20 21 21 21 19 20 19 21 21 21 22 22
30 29 28 24 22 22 23 23 23 25 27 28 28 29 28 27 26 26 25 25 26 25 24 22 22 23 24 25 23 24 25 25 24 23 25 24 23 22 23 23 23 24 24
32 32 30 26 24 23 25 25 24 25 28 30 32 32 33 32 30 29 28 28 29 31 29 28 27 28 29 29 28 26 27 29 29 28 28 27 26 24 25 26 26 25 26
33 34 33 31 28 27 28 27 26 26 31 32 34 37 36 34 33 31 30 29 30 31 32 33 33 32 33 32 30 28 30 32 32 32 31 27 29 27 28 28 29 28 28
34 35 35 36 31 30 30 31 29 28 31 35 39 38 39 36 34 33 32 30 30 31 31 30 30 30 30 31 32 31 32 33 32 32 32 31 31 33 32 32 33 32 31
37 37 38 38 36 35 33 34 34 33 33 37 40 40 37 36 34 33 32 31 31 30 30 30 31 31 32 32 33 34 34 33 33 33 33 33 33 35 37 36 36 37 37
39 38 39 41 40 38 35 34 34 34 34 39 40 38 36 35 33 33 32 31 30 32 32 31 32 33 34 35 35 34 35 36 37 37 37 37 38 38 38 38 40 39 41
41 39 41 41 42 39 36 34 36 37 38 40 39 35 33 33 32 33 32 31 31 32 33 33 33 33 34 35 35 36 37 38 39 40 41 42 42 42 40 42 43 44 45
41 38 39 40 41 40 38 40 42 40 43 40 36 33 33 31 32 32 32 33 34 34 34 34 34 35 35 37 39 40 40 41 42 44 44 46 46 47 48 48 49 50 52
38 37 38 40 41 41 42 40 42 44 43 38 35 31 33 32 32 33 33 33 34 34 34 35 36 38 39 40 42 42 43 44 46 47 48 50 50 52 54 55 57 57 60
37 36 38 40 42 43 44 45 44 48 40 35 33 32 30 32 33 34 35 35 35 36 37 37 38 39 40 42 43 45 46 47 50 51 52 54 55 57 58 61 63 65 66
38 37 38 40 42 45 46 49 49 47 41 36 33 32 33 34 36 37 38 38 38 38 39 40 40 41 42 44 45 47 49 51 51 54 57 58 59 62 64 66 69 72 72
38 37 39 40 43 47 50 51 52 46 42 38 34 33 35 36 37 38 39 41 41 41 42 42 42 43 43 45 47 49 51 54 56 58 59 61 63 65 68 70 74 77 76
39 42 44 44 45 49 50 50 48 47 45 41 36 36 38 38 39 40 41 43 43 42 42 43 44 44 45 46 47 51 53 54 56 58 62 64 65 69 69 70 70 71 71
41 45 46 47 47 49 49 49 48 47 47 49 44 41 41 42 43 44 46 46 46 45 45 46 46 47 47 48 50 52 52 53 53 56 58 62 62 64 67 69 74 76 78
47 48 48 48 48 49 50 51 49 50 50 53 51 47 46 47 48 49 51 51 50 48 48 49 49 49 50 51 51 51 52 52 52 54 55 58 61 65 70 72 75 76 76
Wind_Direction
308 307 304 305 305 312 315 307 301 294 311 325 330 333 330 337 340 336 335 328 330 339 347 349 347 346 342 334 334 334 335 332 329 324 323 320 316 313 311 313 320 336 339
314 308 304 304 302 302 302 297 277 287 294 312 322 327 326 328 330 329 330 326 324 333 340 343 344 342 343 342 342 343 341 343 345 339 337 324 320 313 314 313 312 320 332
314 309 305 304 302 301 292 287 275 284 288 312 317 320 322 320 321 327 325 320 319 322 327 329 332 336 337 335 338 340 343 347 347 353 354 349 350 341 330 321 323 323 330
316 310 304 303 300 295 285 281 275 281 300 307 313 315 316 314 319 320 321 317 315 316 317 319 318 317 316 315 319 323 327 335 345 349 349 352 353 348 346 332 331 320 323
311 312 310 305 299 296 284 277 271 287 291 296 308 311 311 312 313 312 313 311 306 306 305 306 305 301 300 300 299 300 307 311 318 333 331 338 340 338 337 330 327 327 322
302 309 309 305 299 297 288 290 273 296 281 298 302 306 307 307 305 305 307 304 299 298 297 298 297 300 302 300 294 293 295 299 302 305 307 315 321 320 321 316 312 317 318
298 302 304 303 300 297 289 285 283 285 289 294 298 301 302 302 301 300 298 297 296 294 293 293 293 293 294 296 295 292 291 292 294 295 302 305 308 317 309 304 304 302 302
295 298 301 302 302 298 293 293 292 291 293 295 297 297 296 297 297 296 295 295 291 290 291 289 285 281 277 281 282 280 278 276 278 289 296 300 301 304 311 314 306 310 327
291 293 294 298 299 297 292 290 289 289 290 288 286 287 289 290 292 293 294 289 285 286 289 291 290 284 280 279 275 276 273 271 275 282 284 288 287 285 288 302 302 304 310
287 288 289 292 295 294 293 292 287 285 284 285 286 287 287 289 290 294 290 287 285 280 282 284 286 286 286 280 275 274 275 279 278 278 283 287 281 282 280 281 290 293 291
282 284 286 290 290 291 294 294 291 290 287 286 286 284 284 284 285 283 282 282 279 274 272 275 279 283 284 284 282 278 272 275 278 277 282 283 277 276 278 279 286 288 290
278 280 283 284 285 288 291 291 292 291 289 288 286 284 283 284 284 280 279 278 274 273 270 271 273 277 280 281 279 278 277 276 275 276 277 278 274 276 276 278 281 284 286
275 276 279 280 278 280 284 287 291 292 292 292 292 289 286 281 279 277 277 278 275 267 268 268 268 272 276 279 277 276 276 278 278 277 276 276 274 272 274 278 279 280 282
271 273 276 277 276 277 281 285 289 293 295 297 294 292 289 284 276 272 272 274 275 269 266 265 266 269 271 272 273 274 274 275 277 279 278 278 277 275 276 274 274 278 279
266 267 270 273 274 277 278 283 287 289 293 296 294 289 287 283 276 271 270 271 270 269 265 266 268 270 268 268 271 272 274 274 275 276 279 280 280 282 280 278 281 280 279
263 264 267 270 272 274 276 280 283 284 286 295 294 287 283 279 275 272 271 269 268 268 267 268 270 271 270 270 271 275 276 277 277 278 279 280 280 281 280 285 283 282 281
266 264 267 269 272 274 277 279 282 285 289 294 294 282 279 277 275 272 272 271 269 269 270 272 272 271 271 270 270 270 273 276 279 280 279 281 280 278 280 282 278 280 282
267 269 270 271 274 276 277 275 280 287 290 292 291 276 271 273 273 271 271 271 271 272 273 273 272 271 270 269 270 271 274 275 277 279 280 280 282 281 278 278 278 280 283
273 272 272 273 274 276 274 280 284 286 290 292 286 272 266 270 271 272 272 273 273 274 275 275 275 274 273 273 274 275 275 276 277 278 279 278 280 280 280 279 279 279 282
275 272 271 271 274 274 276 280 282 289 293 290 284 277 266 268 272 273 272 271 272 274 275 276 276 275 276 276 276 276 278 279 278 279 278 278 279 280 280 281 281 282 283
275 271 271 273 274 277 281 282 284 291 291 286 279 276 276 274 276 277 275 273 273 273 275 275 276 277 278 279 279 279 279 278 279 278 280 281 282 282 281 280 280 280 279
269 268 271 272 274 277 279 281 284 288 289 285 278 276 281 281 280 280 279 277 275 274 275 276 277 279 280 281 281 281 280 279 279 280 280 280 282 282 281 283 283 282 281
264 267 269 270 271 274 275 279 281 285 284 282 277 276 282 283 281 280 280 279 277 277 279 279 279 279 281 281 281 281 281 281 283 283 283 284 284 287 285 283 282 282 283
265 266 268 269 271 273 273 275 276 280 281 280 275 276 281 284 283 281 280 278 278 278 279 278 277 277 278 280 282 283 282 284 286 288 289 291 290 288 287 286 284 283 283
260 263 267 271 273 272 270 271 271 275 277 278 278 278 280 282 284 283 281 280 280 279 279 279 280 280 281 283 285 286 288 289 289 290 290 290 289 288 288 289 288 288 287
262 260 264 268 269 270 267 267 266 268 271 274 277 277 278 279 279 280 281 281 279 279 280 280 281 282 284 287 288 287 286 288 288 290 293 293 294 298 297 295 291 288 287
Height
5880 5879 5878 5877 5876 5875 5874 5872 5872 5871 5870 5869 5869 5868 5867 5866 5865 5864 5864 5863 5861 5861 5859 5859 5858 5858 5857 5857 5856 5856 5855 5855 5854 5854 5853 5853 5853 5853 5854 5854 5854 5854 5854
5878 5876 5875 5874 5873 5871 5871 5870 5869 5869 5868 5868 5867 5866 5865 5865 5864 5863 5862 5861 5860 5859 5859 5858 5857 5857 5856 5856 5856 5855 5855 5854 5854 5853 5852 5852 5852 5852 5852 5853 5853 5853 5854
5877 5875 5873 5871 5870 5868 5868 5867 5866 5866 5865 5865 5865 5864 5864 5863 5862 5861 5860 5860 5859 5857 5857 5858 5856 5855 5855 5855 5854 5854 5854 5854 5854 5853 5852 5852 5852 5852 5852 5852 5852 5853 5853
5873 5872 5870 5869 5867 5866 5864 5863 5863 5862 5862 5862 5862 5862 5862 5861 5860 5859 5858 5858 5858 5856 5856 5856 5855 5854 5854 5854 5853 5853 5852 5853 5853 5852 5852 5852 5852 5852 5851 5851 5852 5852 5852
5871 5869 5868 5867 5866 5864 5862 5861 5860 5860 5859 5859 5859 5859 5859 5859 5859 5858 5857 5856 5856 5855 5854 5854 5854 5853 5853 5852 5852 5851 5851 5851 5851 5851 5851 5851 5852 5852 5852 5851 5851 5850 5851
5867 5866 5866 5864 5862 5860 5859 5857 5858 5857 5857 5857 5856 5856 5857 5857 5856 5856 5855 5854 5853 5853 5853 5852 5852 5852 5851 5851 5850 5850 5850 5850 5850 5849 5849 5849 5850 5850 5850 5850 5849 5849 5849
5864 5863 5862 5861 5860 5858 5856 5856 5856 5855 5854 5854 5853 5853 5853 5853 5853 5853 5852 5851 5851 5850 5850 5850 5849 5849 5850 5849 5849 5849 5848 5848 5847 5848 5848 5848 5848 5848 5848 5848 5848 5847 5847
5859 5858 5858 5857 5856 5855 5854 5853 5853 5852 5852 5851 5850 5850 5850 5850 5850 5849 5849 5848 5847 5847 5847 5847 5847 5846 5846 5846 5846 5846 5846 5846 5845 5845 5845 5846 5846 5846 5846 5846 5846 5845 5845
5855 5855 5854 5854 5853 5852 5851 5850 5849 5849 5848 5848 5847 5847 5846 5845 5845 5845 5845 5844 5844 5843 5843 5843 5844 5844 5844 5844 5844 5844 5845 5844 5843 5842 5842 5843 5844 5844 5843 5843 5843 5843 5842
5852 5851 5850 5849 5849 5848 5847 5847 5847 5846 5845 5845 5844 5843 5842 5842 5841 5841 5841 5841 5840 5840 5839 5840 5840 5841 5842 5842 5841 5842 5842 5842 5841 5841 5840 5841 5840 5840 5840 5839 5839 5839 5838
5848 5847 5846 5845 5845 5843 5843 5842 5843 5843 5841 5841 5841 5839 5838 5837 5837 5837 5836 5837 5837 5837 5836 5836 5836 5837 5838 5838 5838 5838 5839 5838 5838 5837 5837 5837 5836 5836 5835 5835 5836 5835 5835
5844 5843 5841 5841 5841 5840 5839 5838 5838 5838 5837 5837 5836 5835 5834 5833 5832 5832 5831 5831 5832 5832 5832 5832 5832 5832 5833 5833 5833 5833 5833 5834 5834 5833 5832 5832 5832 5832 5831 5830 5830 5830 5830
5839 5837 5837 5837 5837 5836 5835 5834 5834 5833 5832 5831 5830 5829 5828 5827 5826 5827 5826 5826 5825 5825 5826 5826 5826 5827 5827 5827 5827 5827 5828 5828 5829 5828 5827 5828 5828 5827 5827 5826 5825 5825 5825
5833 5832 5831 5831 5831 5831 5830 5829 5829 5828 5825 5824 5823 5822 5821 5821 5820 5820 5820 5820 5819 5818 5819 5819 5820 5820 5820 5820 5821 5821 5822 5822 5821 5821 5820 5822 5821 5822 5821 5820 5819 5819 5820
5826 5826 5825 5824 5824 5824 5824 5823 5823 5822 5821 5819 5817 5815 5814 5814 5813 5812 5813 5813 5813 5812 5812 5812 5813 5813 5813 5813 5813 5814 5814 5815 5815 5815 5814 5815 5815 5814 5815 5814 5814 5814 5814
5819 5819 5818 5818 5818 5818 5818 5817 5817 5816 5815 5814 5811 5809 5806 5806 5806 5806 5806 5806 5806 5806 5806 5806 5806 5806 5806 5806 5806 5807 5807 5807 5808 5809 5809 5808 5809 5809 5807 5810 5809 5807 5807
5812 5812 5811 5811 5811 5811 5811 5811 5810 5809 5809 5807 5804 5802 5800 5799 5799 5799 5799 5799 5799 5799 5799 5799 5799 5799 5799 5799 5799 5799 5800 5800 5800 5800 5800 5801 5800 5801 5802 5801 5798 5799 5798
5804 5806 5805 5804 5803 5803 5803 5803 5802 5801 5800 5799 5796 5794 5793 5793 5792 5792 5792 5792 5791 5791 5791 5791 5791 5791 5791 5791 5792 5792 5793 5792 5792 5792 5791 5791 5792 5790 5792 5791 5790 5789 5788
5798 5798 5798 5797 5795 5795 5794 5794 5793 5792 5792 5791 5789 5787 5787 5786 5786 5785 5785 5784 5784 5784 5784 5783 5783 5783 5784 5784 5784 5784 5784 5784 5783 5783 5783 5782 5782 5780 5779 5780 5778 5778 5777
5790 5791 5790 5789 5788 5785 5785 5785 5784 5784 5783 5782 5781 5780 5779 5779 5779 5779 5777 5777 5776 5776 5776 5776 5777 5777 5777 5776 5775 5775 5775 5774 5773 5772 5772 5771 5772 5771 5769 5768 5766 5767 5766
5782 5782 5781 5781 5780 5778 5776 5776 5775 5775 5774 5772 5772 5772 5772 5772 5772 5771 5771 5770 5769 5769 5769 5768 5768 5768 5768 5767 5766 5765 5765 5764 5763 5761 5760 5759 5759 5758 5756 5754 5752 5752 5753
5771 5771 5772 5772 5771 5769 5768 5766 5765 5765 5764 5764 5764 5764 5764 5764 5764 5764 5763 5762 5761 5760 5760 5759 5759 5758 5758 5757 5755 5754 5753 5753 5752 5748 5746 5745 5744 5741 5740 5739 5737 5736 5735
5761 5762 5762 5762 5762 5760 5758 5757 5755 5755 5754 5754 5755 5755 5755 5755 5755 5755 5755 5754 5753 5752 5750 5750 5749 5748 5747 5747 5745 5744 5742 5740 5738 5736 5734 5731 5730 5725 5722 5721 5718 5718 5715
5753 5752 5751 5751 5752 5750 5748 5747 5746 5744 5743 5744 5745 5745 5746 5746 5746 5746 5745 5745 5743 5742 5741 5740 5739 5738 5737 5735 5734 5732 5730 5728 5725 5721 5718 5714 5712 5709 5706 5704 5700 5699 5696
5742 5741 5741 5740 5740 5740 5739 5737 5736 5734 5734 5733 5735 5736 5736 5736 5736 5736 5735 5734 5733 5732 5731 5729 5728 5726 5724 5723 5721 5718 5715 5715 5712 5709 5704 5700 5694 5691 5688 5686 5678 5674 5671
5731 5730 5730 5728 5728 5728 5729 5727 5726 5724 5725 5723 5724 5725 5725 5725 5725 5724 5724 5723 5722 5720 5719 5717 5716 5714 5712 5710 5707 5705 5703 5700 5699 5695 5690 5685 5680 5673 5671 5664 5655 5649 5645